Weather History for KMSO - October, 2011

Change the Weather History Date:

Wednesday, October 19, 2011

  Actual Average Record
Temperature  
Mean Temperature 38 °F 44 °F  
Max Temperature 50 °F 56 °F 73 °F (2003)
Min Temperature 26 °F 32 °F 15 °F (1969)
Degree Days  
Heating Degree Days 27 21  
Month to date heating degree days 307 334  
Since 1 July heating degree days 460 659  
Cooling Degree Days 0 0  
Month to date cooling degree days 0 0  
Year to date cooling degree days 290 332  
Moisture  
Dew Point 31 °F    
Average Humidity 77    
Maximum Humidity 92    
Minimum Humidity 61    
Precipitation  
Precipitation 0.00 in 0.03 in 0.72 in (1933)
Month to date precipitation 1.83 0.53  
Year to date precipitation 12.83 11.73  
Snow  
Snow 0.00 in - - ()
Month to date snowfall 0.0  
Year to date snowfall 42.9  
Since 1 July snowfall 0.0  
Snow Depth 0.00 in    
Sea Level Pressure  
Sea Level Pressure 30.11 in    
Wind  
Wind Speed 1 mph (ESE)    
Max Wind Speed 6 mph    
Max Gust Speed 7 mph    
Visibility 6 miles    
Events Fog    
T = Trace of Precipitation, MM = Missing Value Source: NWS Daily Summary

Daily Weather History Graph

Daily Weather History Graph

Search for Another Location

Airport or City:

Trip Planner

Search our weather history database for the weather conditions in past years. The results will help you decide how hot, cold, wet, or windy it might be!

Date:

Astronomy

Oct. 19, 2011 Rise Set
Actual Time 7:59 AM MDT 6:42 PM MDT
Civil Twilight 7:28 AM MDT 7:13 PM MDT
Nautical Twilight 6:53 AM MDT 7:48 PM MDT
Astronomical Twilight 6:18 AM MDT 8:23 PM MDT
Moon No Moon Rise 2:43 PM MDT (10/19)
Length of Visible Light 11h 44m
Length of Day
10h 42m
Waning Gibbous, 54% of the Moon is Illuminated
Oct 19
Waning Gibbous
Oct 19
Last Quarter
Oct 26
New
Nov 2
First Quarter
Nov 10
Full

Hourly Weather History & Observations

Time (MDT) Temp. Windchill Dew Point Humidity Pressure Visibility Wind Dir Wind Speed Gust Speed Precip Events Conditions
12:53 AM 35.6 °F - 30.2 °F 81% 30.19 in 10.0 mi Calm Calm - N/A   Clear
1:53 AM 33.1 °F - 28.9 °F 85% 30.23 in 10.0 mi Calm Calm - N/A   Clear
2:53 AM 30.0 °F - 28.0 °F 92% 30.22 in 10.0 mi Calm Calm - N/A   Clear
3:53 AM 28.9 °F - 27.0 °F 92% 30.20 in 10.0 mi Calm Calm - N/A   Clear
4:53 AM 30.0 °F - 26.1 °F 85% 30.18 in 10.0 mi Calm Calm - N/A   Clear
5:53 AM 28.0 °F - 25.0 °F 88% 30.17 in 10.0 mi Calm Calm - N/A   Clear
6:53 AM 28.0 °F 24.2 °F 26.1 °F 92% 30.17 in 6.0 mi SSE 3.5 mph - N/A   Clear
7:00 AM 26.6 °F - 26.6 °F 100% 30.10 in 2.5 mi Calm Calm - N/A   Partly Cloudy
7:04 AM 28.4 °F - 26.6 °F 93% 30.10 in 1.0 mi Calm Calm - N/A   Mist
7:12 AM 26.6 °F - 26.6 °F 100% 30.10 in 0.8 mi Calm Calm - N/A   Mist
7:53 AM 27.0 °F - 25.0 °F 92% 30.17 in 1.2 mi Calm Calm - N/A   Scattered Clouds
7:56 AM 26.6 °F - 24.8 °F 93% 30.09 in 2.0 mi Calm Calm - N/A   Scattered Clouds
8:07 AM 26.6 °F - 24.8 °F 93% 30.08 in 1.5 mi Calm Calm - N/A   Scattered Clouds
8:14 AM 28.4 °F - 26.6 °F 93% 30.08 in 0.5 mi Calm Calm - N/A Fog Light Freezing Fog
8:29 AM 26.6 °F - 24.8 °F 93% 30.08 in 0.2 mi Calm Calm - N/A Fog Light Freezing Fog
8:45 AM 26.6 °F 22.6 °F 24.8 °F 93% 30.09 in 0.8 mi North 3.5 mph - N/A   Mist
8:53 AM 28.9 °F 22.8 °F 27.0 °F 92% 30.17 in 0.5 mi North 5.8 mph - N/A Fog Light Freezing Fog
9:53 AM 30.2 °F 25.4 °F 28.4 °F 93% 30.10 in 0.2 mi WSW 4.6 mph - N/A Fog Light Freezing Fog
10:53 AM 32.0 °F 28.7 °F 30.9 °F 96% 30.16 in 0.2 mi SSE 3.5 mph - N/A Fog Fog
11:29 AM 33.8 °F - 32.0 °F 93% 30.08 in 0.5 mi Calm Calm - N/A Fog Fog
11:53 AM 35.1 °F 32.2 °F 33.1 °F 92% 30.14 in 1.0 mi ESE 3.5 mph - N/A   Overcast
12:02 PM 35.6 °F 32.8 °F 33.8 °F 93% 30.07 in 0.8 mi ESE 3.5 mph - N/A   Overcast
12:11 PM 35.6 °F - 33.8 °F 93% 30.07 in 3.0 mi Calm Calm - N/A   Overcast
12:51 PM 37.4 °F - 35.6 °F 93% 30.05 in 6.0 mi Calm Calm - N/A   Scattered Clouds
12:53 PM 37.0 °F - 35.1 °F 93% 30.11 in 7.0 mi Calm Calm - N/A   Partly Cloudy
1:53 PM 43.0 °F - 36.0 °F 76% 30.07 in 10.0 mi Calm Calm - N/A   Clear
2:53 PM 48.0 °F - 36.0 °F 63% 30.05 in 10.0 mi Calm Calm - N/A   Clear
3:53 PM 48.9 °F - 37.0 °F 64% 30.04 in 10.0 mi Calm Calm - N/A   Clear
4:53 PM 48.9 °F - 37.0 °F 64% 30.04 in 10.0 mi Calm Calm - N/A   Clear
5:53 PM 48.9 °F - 37.0 °F 64% 30.05 in 10.0 mi Calm Calm - N/A   Clear
6:53 PM 48.0 °F - 36.0 °F 63% 30.06 in 10.0 mi Calm Calm - N/A   Clear
7:53 PM 44.1 °F - 37.0 °F 76% 30.08 in 10.0 mi Calm Calm - N/A   Partly Cloudy
8:53 PM 42.1 °F - 36.0 °F 79% 30.08 in 10.0 mi Calm Calm - N/A   Partly Cloudy
9:53 PM 39.0 °F - 35.1 °F 86% 30.11 in 10.0 mi Calm Calm - N/A   Clear
10:53 PM 37.9 °F - 34.0 °F 86% 30.12 in 10.0 mi Calm Calm - N/A   Scattered Clouds
11:53 PM 39.0 °F - 34.0 °F 82% 30.11 in 10.0 mi Calm Calm - N/A   Mostly Cloudy